[[[{"header":{"parameterUnit":"kt","parameterCategory":2,"dx":1,"dy":1,"la1":30.253999710083008,"la2":30.299108505249023,"lo1":-89.0895004272461,"lo2":-89.04439544677734,"nx":28,"ny":28,"refTime":"2022-10-25T21:00:00:Z","depth":"0","parameterNumber":2,"parameterNumberName":"U-component_of_CURRENTS"},"data":[0.3332,0.3246,0.3221,0.3051,0.301,0.286,0.2803,0.2723,0.2727,0.2587,0.2503,0.251,0.2476,0.2226,0.198,0.1939,0.1776,0.1597,0.1716,0.211,0.2172,0.2231,0.211,0.1639,0.1638,0.097,0.0965,0.0961,0.3412,0.3392,0.3377,0.3309,0.324,0.3291,0.3268,0.3192,0.3103,0.3166,0.3176,0.3063,0.2917,0.2904,0.2688,0.251,0.2407,0.2417,0.2168,0.2148,0.272,0.2602,0.2228,0.2228,0.2228,0.2228,0.2228,0.2228,0.3556,0.3527,0.3526,0.3485,0.3488,0.3449,0.3401,0.3452,0.3452,0.3433,0.3612,0.3582,0.3541,0.3534,0.3507,0.3263,0.3339,0.3089,0.3087,0.299,0.2795,0.3391,0.3251,0.3255,0.3258,0.3261,0.3263,0,0.3637,0.3647,0.3645,0.3631,0.3625,0.3627,0.3663,0.3678,0.3785,0.382,0.3871,0.3911,0.3989,0.3877,0.3902,0.3884,0.3704,0.3849,0.3758,0.3215,0.2998,0.2886,0.3596,0.3525,0.353,0.3534,0.3537,0.3539,0.3728,0.3723,0.3742,0.3735,0.3733,0.3765,0.3776,0.3884,0.3917,0.4035,0.4031,0.4125,0.415,0.4246,0.4217,0.4233,0.412,0.3974,0.3879,0.3724,0.3675,0.3545,0.3461,0.3596,0.3589,0.3583,0.3578,0,0.3777,0.3804,0.3793,0.3829,0.3835,0.3838,0.3901,0.3928,0.4033,0.4071,0.4094,0.4209,0.4271,0.434,0.4415,0.4378,0.4232,0.4366,0.4077,0.4019,0.3762,0.373,0.3512,0.3402,0.4255,0.4252,0.425,0,0.3845,0.3837,0.387,0.3864,0.3862,0.3917,0.3943,0.3987,0.4074,0.4102,0.4196,0.4222,0.4311,0.4356,0.4377,0.4366,0.4444,0.4304,0.4282,0.4045,0.4013,0.3877,0.3831,0.4434,0.4433,0.4433,0.4433,0,0.3891,0.3894,0.3888,0.3895,0.3921,0.3931,0.3953,0.4026,0.4054,0.4151,0.4182,0.4261,0.4282,0.4327,0.4343,0.432,0.4417,0.4379,0.4276,0.4267,0.4026,0.3991,0.3911,0.4432,0.4432,0.4432,0.4432,0,0.3925,0.3932,0.3923,0.3953,0.3955,0.3944,0.3996,0.4006,0.4078,0.4115,0.4173,0.4185,0.4246,0.4213,0.429,0.4259,0.426,0.4267,0.4269,0.414,0.4072,0.388,0.3878,0.3745,0.4246,0.4244,0.4243,0,0.3975,0.3963,0.397,0.3955,0.3958,0.3982,0.3991,0.4018,0.4043,0.4072,0.4108,0.4127,0.4114,0.4122,0.4157,0.4179,0.4204,0.4159,0.4168,0.4168,0.4077,0.4131,0.3857,0.3872,0.4226,0.4228,0.4229,0,0.4011,0.4016,0.4011,0.4019,0.4022,0.4006,0.4014,0.4027,0.4054,0.4038,0.4076,0.4076,0.4096,0.4083,0.4069,0.4095,0.4172,0.4064,0.4063,0.41,0.4237,0.412,0.412,0.4159,0.4162,0.4164,0.4216,0,0.4091,0.4066,0.405,0.4038,0.4034,0.4014,0.4017,0.401,0.4009,0.401,0.4037,0.4003,0.3996,0.3997,0.3969,0.4028,0.4003,0.3981,0.3949,0.3996,0.4006,0.4017,0.3865,0.3864,0.3862,0.3861,0,0,0.4142,0.4097,0.409,0.4077,0.4074,0.4065,0.4053,0.4031,0.398,0.3994,0.3975,0.3947,0.392,0.3934,0.3946,0.3907,0.391,0.389,0.3956,0.3966,0.3976,0.399,0.4002,0.3859,0.3858,0.3858,0.3857,0,0.4162,0.4132,0.4106,0.4099,0.4082,0.4058,0.4064,0.4021,0.4015,0.3974,0.3966,0.3973,0.3888,0.389,0.3876,0.3885,0.3874,0.3871,0.3909,0.3943,0.3955,0.3966,0.3983,0.3994,0.3854,0.3855,0.3855,0,0.4212,0.4186,0.4165,0.4115,0.4089,0.4067,0.4062,0.4032,0.402,0.3971,0.393,0.3918,0.3873,0.3847,0.3835,0.3808,0.3827,0.3792,0.3797,0.3812,0.3846,0.3859,0.3871,0.3724,0.3724,0.3724,0,0,0.4236,0.4203,0.417,0.4116,0.4111,0.4073,0.4049,0.4037,0.3993,0.3975,0.3934,0.3895,0.3876,0.3849,0.3816,0.3767,0.3771,0.378,0.3786,0.3791,0.3809,0.3844,0.3856,0.3724,0.3724,0.3724,0,0,0.4241,0.4202,0.4199,0.4132,0.411,0.4046,0.402,0.4012,0.3964,0.3967,0.3922,0.391,0.3899,0.3846,0.385,0.3819,0.3789,0.3786,0.3859,0.3866,0.3872,0.3908,0.3831,0,0,0,0,0,0.4259,0.421,0.4209,0.4195,0.4094,0.4047,0.4033,0.4003,0.4009,0.3996,0.3956,0.3944,0.3843,0.3844,0.3828,0.3855,0.3722,0.3723,0.3723,0.3808,0.3816,0.3822,0,0,0,0,0,0,0.4253,0.4234,0.4211,0.4146,0.4124,0.4046,0.4038,0.4027,0.4011,0.4011,0.3948,0.3941,0.3902,0.385,0.3836,0.3864,0.3836,0.3723,0.3723,0.3723,0.381,0.3817,0.3822,0,0,0,0,0,0.4249,0.4233,0.4084,0.4145,0.4126,0.4079,0.404,0.4031,0.4013,0.3955,0.3947,0.4001,0.3901,0.3889,0.3841,0.3872,0.3845,0.384,0.3723,0.3723,0.3723,0.3814,0,0,0,0,0,0,0.4245,0.4207,0.4078,0.4071,0.4171,0.4083,0.4069,0.4034,0.3958,0.395,0.4005,0.4006,0.39,0.389,0.3881,0.3879,0.3853,0.3848,0.3845,0.3723,0.3723,0.3723,0,0,0,0,0,0,0.4216,0.4201,0.4074,0.4109,0.4105,0.4088,0.4075,0.4014,0.3958,0.401,0.4009,0.4006,0.3933,0.3891,0.3884,0.3787,0.3859,0.3854,0.3851,0.3848,0.3723,0.3723,0,0,0,0,0,0,0.4209,0.4196,0.411,0.4107,0.4103,0.4014,0.4033,0.3938,0.3971,0.4013,0.3977,0.3979,0.3935,0.3925,0.3886,0.3793,0.3789,0.3859,0.3856,0.3853,0.3852,0,0,0,0,0,0,0,0.4203,0.4301,0.4131,0.4105,0.4102,0.4008,0.4005,0.4002,0.3972,0.3974,0.3976,0.3978,0.3888,0.3883,0.3877,0.3797,0,0,0.386,0.3857,0,0,0,0,0,0,0,0,0.4305,0.4302,0.4131,0.413,0.4129,0.4007,0.4005,0.4003,0.3972,0.3974,0.3976,0.3977,0.3887,0.3882,0.3878,0,0,0,0,0,0,0,0,0,0,0,0,0,0,0,0.4131,0.413,0,0.4007,0.4005,0.4003,0.3972,0.3974,0.3975,0.3977,0.3886,0.3882,0.3878,0,0,0,0,0,0,0,0,0,0,0,0,0,0,0,0,0,0,0,0,0,0,0,0,0,0,0,0,0,0,0,0,0,0,0,0,0,0,0,0,0,0,0,0,0,0,0,0,0,0,0,0,0,0,0,0,0,0,0,0,0,0,0,0,0,0,0,0,0]}],[{"header":{"parameterUnit":"kt","parameterCategory":2,"dx":1,"dy":1,"la1":30.253999710083008,"la2":30.299108505249023,"lo1":-89.0895004272461,"lo2":-89.04439544677734,"nx":28,"ny":28,"refTime":"2022-10-25T21:00:00:Z","depth":"0","parameterNumber":3,"parameterNumberName":"V-component_of_CURRENTS"},"data":[0.0647,0.0752,0.0793,0.099,0.1083,0.123,0.1336,0.1491,0.1609,0.1716,0.1723,0.1695,0.1467,0.079,0.027,0.0091,-0.0137,-0.0182,-0.0332,-0.015,-0.0142,-0.0134,-0.0148,-0.022,-0.0221,-0.0497,-0.05,-0.0502,0.059,0.0654,0.0767,0.0904,0.1026,0.1075,0.1277,0.1368,0.1556,0.1688,0.1769,0.1671,0.1389,0.1024,0.0514,0.0215,0.0085,0.0028,0.0004,-0.0057,0.0183,0.0184,0.0182,0.0182,0.0182,0.0183,0.0183,0.0183,0.0499,0.056,0.0645,0.0768,0.089,0.1041,0.114,0.1278,0.1455,0.1589,0.1625,0.1656,0.1405,0.0973,0.074,0.0328,0.0271,0.0176,0.0091,0.0069,-0.0007,0.0232,0.0249,0.0248,0.0248,0.0247,0.0247,0,0.042,0.0448,0.0517,0.0642,0.0745,0.087,0.0991,0.11,0.1204,0.1303,0.1432,0.145,0.1262,0.1079,0.0741,0.0556,0.0235,0.0285,0.0198,0.0115,0.0075,-0.0023,0.0213,0.0276,0.0275,0.0275,0.0275,0.0274,0.0327,0.0374,0.0467,0.0536,0.0568,0.0675,0.0766,0.0838,0.0947,0.107,0.1146,0.1117,0.1128,0.0921,0.0665,0.0434,0.0288,0.0283,0.021,0.012,0.0007,-0.0028,-0.0093,0.0269,0.027,0.027,0.0271,0,0.0285,0.0299,0.0381,0.0438,0.0473,0.0548,0.0664,0.0764,0.0805,0.0949,0.0957,0.0939,0.0879,0.0711,0.0584,0.0426,0.0257,0.0249,0.0297,0.0273,0.0091,0.0011,-0.0008,-0.0083,0.0156,0.0156,0.0155,0,0.0216,0.0271,0.0296,0.0334,0.0438,0.043,0.0557,0.0593,0.0672,0.0791,0.0703,0.0769,0.0609,0.0562,0.0419,0.0309,0.0344,0.0167,0.0137,0.0175,0.0174,0.0088,0.0005,0.0189,0.0189,0.0189,0.0189,0,0.0141,0.0196,0.0257,0.027,0.0315,0.0353,0.0388,0.0448,0.0522,0.0564,0.0607,0.0576,0.0566,0.0476,0.0342,0.0303,0.029,0.022,0.0127,0.0123,0.0147,0.0143,0.0151,0.0189,0.0189,0.0189,0.0189,0,0.0072,0.0102,0.0171,0.0215,0.0229,0.0267,0.0343,0.0384,0.0433,0.0443,0.0452,0.0409,0.0399,0.0302,0.0254,0.0246,0.0166,0.0117,0.0115,0.0076,0.0002,0.0046,0.0125,0.0044,0.0054,0.0053,0.0053,0,-0.0002,0.0057,0.0043,0.0114,0.0142,0.0123,0.0167,0.0191,0.021,0.0258,0.0214,0.0241,0.0149,0.0148,0.0135,0.0087,0.0081,0.0063,0.0012,0.0011,-0.0011,0.0061,0.0109,0.0112,0.0043,0.0044,0.0045,0,-0.007,-0.0062,-0.0053,-0.0032,-0.0033,-0.001,0.0024,0.0059,0.0113,0.0083,0.0139,0.0114,0.0083,0.0078,0.0031,0.0034,0.0059,-0.0022,-0.0024,-0.0021,0.007,0.0048,0.0052,0.0036,0.0038,0.0039,0.0037,0,-0.0139,-0.0125,-0.0105,-0.0096,-0.0087,-0.0061,-0.0077,-0.006,-0.0075,-0.0072,-0.0045,-0.0084,-0.0075,-0.0088,-0.0119,-0.0073,-0.0101,-0.0133,-0.0158,-0.0103,-0.0116,-0.0109,-0.0206,-0.0208,-0.0209,-0.021,0,0,-0.0208,-0.0192,-0.0226,-0.0202,-0.0193,-0.0229,-0.0197,-0.0194,-0.02,-0.0182,-0.0219,-0.0206,-0.0233,-0.0189,-0.0179,-0.0198,-0.0206,-0.019,-0.0137,-0.0128,-0.0121,-0.0128,-0.0121,-0.0213,-0.0213,-0.0213,-0.0214,0,-0.0241,-0.0261,-0.0241,-0.0242,-0.0247,-0.0253,-0.0249,-0.0261,-0.0261,-0.0242,-0.0273,-0.0272,-0.027,-0.0269,-0.027,-0.0218,-0.025,-0.0227,-0.0155,-0.0148,-0.0138,-0.013,-0.0135,-0.0127,-0.0217,-0.0217,-0.0217,0,-0.03,-0.0313,-0.0314,-0.0321,-0.0323,-0.0302,-0.0346,-0.0329,-0.0309,-0.0357,-0.0325,-0.0347,-0.036,-0.0333,-0.0326,-0.0341,-0.0287,-0.031,-0.0303,-0.0285,-0.028,-0.0268,-0.0258,-0.039,-0.039,-0.0391,0,0,-0.0323,-0.0322,-0.0349,-0.0333,-0.0334,-0.035,-0.0343,-0.0353,-0.0356,-0.0353,-0.0365,-0.0373,-0.0371,-0.0366,-0.0369,-0.0344,-0.0355,-0.0328,-0.032,-0.0313,-0.0291,-0.0284,-0.0273,-0.0392,-0.0392,-0.0392,0,0,-0.0333,-0.0368,-0.0388,-0.0373,-0.0376,-0.0386,-0.0361,-0.0379,-0.037,-0.0372,-0.0398,-0.04,-0.0382,-0.0397,-0.0409,-0.0372,-0.041,-0.0407,-0.0351,-0.0341,-0.0334,-0.0305,-0.0441,0,0,0,0,0,-0.0392,-0.0368,-0.0387,-0.0389,-0.0395,-0.0384,-0.0381,-0.0386,-0.0403,-0.0382,-0.0394,-0.0415,-0.0405,-0.0416,-0.0418,-0.0389,-0.0407,-0.0404,-0.0402,-0.0325,-0.0314,-0.0305,0,0,0,0,0,0,-0.0393,-0.0397,-0.0387,-0.0401,-0.0402,-0.0385,-0.0412,-0.0412,-0.0405,-0.0406,-0.0412,-0.0415,-0.0429,-0.0417,-0.0418,-0.039,-0.0441,-0.0406,-0.0403,-0.0401,-0.0321,-0.0312,-0.0305,0,0,0,0,0,-0.0394,-0.0397,-0.041,-0.04,-0.0401,-0.0405,-0.0413,-0.0413,-0.0403,-0.042,-0.0423,-0.0407,-0.0428,-0.043,-0.0418,-0.0389,-0.0441,-0.0441,-0.0404,-0.0402,-0.0401,-0.0317,0,0,0,0,0,0,-0.0395,-0.0388,-0.041,-0.041,-0.0408,-0.0405,-0.0406,-0.0414,-0.0418,-0.042,-0.0417,-0.0418,-0.0427,-0.0429,-0.043,-0.0387,-0.044,-0.0441,-0.0441,-0.0403,-0.0401,-0.04,0,0,0,0,0,0,-0.0387,-0.0388,-0.041,-0.042,-0.0421,-0.0404,-0.0406,-0.0406,-0.0419,-0.0414,-0.0415,-0.0418,-0.0435,-0.0428,-0.0429,-0.0427,-0.044,-0.044,-0.044,-0.0441,-0.0402,-0.0401,0,0,0,0,0,0,-0.0387,-0.0388,-0.042,-0.042,-0.0421,-0.0414,-0.0404,-0.0415,-0.0413,-0.0414,-0.0415,-0.0416,-0.0435,-0.0436,-0.0428,-0.0425,-0.0426,-0.044,-0.044,-0.044,-0.044,0,0,0,0,0,0,0,-0.0387,-0.0385,-0.0416,-0.0421,-0.0421,-0.0407,-0.0406,-0.0406,-0.0414,-0.0414,-0.0415,-0.0416,-0.0439,-0.0439,-0.044,-0.0424,0,0,-0.044,-0.044,0,0,0,0,0,0,0,0,-0.0385,-0.0385,-0.0416,-0.0416,-0.0416,-0.0407,-0.0406,-0.0406,-0.0414,-0.0414,-0.0415,-0.0416,-0.0439,-0.0439,-0.044,0,0,0,0,0,0,0,0,0,0,0,0,0,0,0,-0.0416,-0.0416,0,-0.0407,-0.0406,-0.0406,-0.0414,-0.0414,-0.0415,-0.0415,-0.0439,-0.0439,-0.044,0,0,0,0,0,0,0,0,0,0,0,0,0,0,0,0,0,0,0,0,0,0,0,0,0,0,0,0,0,0,0,0,0,0,0,0,0,0,0,0,0,0,0,0,0,0,0,0,0,0,0,0,0,0,0,0,0,0,0,0,0,0,0,0,0,0,0,0,0]}]],[[{"header":{"parameterUnit":"kt","parameterCategory":2,"dx":1,"dy":1,"la1":30.253999710083008,"la2":30.299108505249023,"lo1":-89.0895004272461,"lo2":-89.04439544677734,"nx":28,"ny":28,"refTime":"2022-10-25T21:00:00:Z","depth":"2","parameterNumber":2,"parameterNumberName":"U-component_of_CURRENTS"},"data":[0.3072,0.3019,0.3,0.2877,0.2867,0.276,0.2716,0.2616,0.2579,0.2428,0.2326,0.2436,0.2468,0.1995,0.1904,0.1681,0.1931,0.1618,0.2555,0.2543,0.2601,0.2726,0.2576,0,0,0,0,0,0.3129,0.3129,0.3132,0.3109,0.3064,0.3137,0.3124,0.3047,0.2957,0.2979,0.2971,0.2681,0.2503,0.2536,0.2286,0.2264,0.225,0.217,0.2099,0.2168,0.2229,0.2081,0.1558,0.1555,0.1552,0.1549,0,0,0.3241,0.3232,0.3254,0.325,0.3279,0.3265,0.3236,0.3284,0.3292,0.3276,0.3427,0.3337,0.3339,0.3148,0.3033,0.2953,0.3223,0.3043,0.3065,0.3096,0.2993,0.2908,0.2712,0.2716,0.2721,0.2724,0.2727,0,0.3298,0.3326,0.3346,0.3364,0.3392,0.342,0.3483,0.3503,0.3624,0.3659,0.3701,0.3731,0.378,0.359,0.3589,0.3543,0.3598,0.3465,0.4055,0.3256,0.3173,0.315,0.3175,0.3046,0.3053,0.3058,0.3061,0.3064,0.3374,0.3372,0.3435,0.3447,0.3474,0.3541,0.3569,0.3698,0.3735,0.3866,0.3865,0.3969,0.3973,0.4033,0.3986,0.3976,0.4101,0.3623,0.3524,0.3989,0.3967,0.3965,0.3962,0.3137,0.3127,0.312,0.3114,0,0.3414,0.3447,0.3465,0.3531,0.3553,0.3586,0.369,0.3727,0.3841,0.3896,0.393,0.4043,0.4094,0.4163,0.4226,0.4176,0.4176,0.4141,0.3765,0.3699,0.3987,0.3979,0.4006,0.4002,0.3999,0.3996,0.3993,0,0.3466,0.3487,0.3537,0.3547,0.3577,0.3643,0.3701,0.3762,0.3863,0.3903,0.4002,0.4031,0.4133,0.4177,0.419,0.4163,0.425,0.4097,0.4076,0.3769,0.373,0.4149,0.4137,0.4246,0.4245,0.4245,0.4245,0,0.3498,0.3536,0.3547,0.3564,0.3612,0.365,0.3692,0.378,0.3825,0.3933,0.3973,0.406,0.4101,0.4141,0.4162,0.4147,0.4225,0.4197,0.4079,0.4069,0.3754,0.3712,0.4245,0.4245,0.4245,0.4245,0.4245,0,0.3527,0.3544,0.356,0.361,0.3623,0.364,0.3717,0.3749,0.3838,0.3884,0.396,0.3988,0.406,0.4036,0.4112,0.4091,0.4095,0.4101,0.4102,0.3958,0.39,0.3601,0.3579,0.4077,0.4075,0.4074,0.4073,0,0.3548,0.3559,0.3579,0.3601,0.3613,0.3656,0.3684,0.3733,0.3777,0.3833,0.3881,0.3926,0.3925,0.3953,0.3989,0.4013,0.4039,0.4002,0.4014,0.4014,0.3896,0.395,0.3593,0.3581,0.4059,0.4061,0.4062,0,0.3559,0.3582,0.3592,0.3605,0.3634,0.3639,0.3676,0.3713,0.3753,0.3786,0.3843,0.3875,0.3907,0.3907,0.3911,0.394,0.401,0.3923,0.3922,0.3935,0.4077,0.3946,0.3942,0.4016,0.4018,0.402,0.4051,0,0.3591,0.3593,0.3596,0.3608,0.3624,0.3632,0.365,0.3679,0.3704,0.3725,0.3786,0.3782,0.3812,0.3825,0.3806,0.3877,0.3858,0.3843,0.3807,0.3865,0.3866,0.3875,0.3745,0.3744,0.3742,0.3741,0,0,0.361,0.3588,0.3603,0.3608,0.3622,0.3629,0.3638,0.3647,0.3655,0.3685,0.3676,0.3722,0.3713,0.375,0.3772,0.3755,0.3762,0.3748,0.3828,0.3837,0.3846,0.3852,0.3862,0.3739,0.3739,0.3738,0.3738,0,0.361,0.36,0.3605,0.3613,0.3623,0.3619,0.3629,0.3637,0.3654,0.3661,0.367,0.3699,0.3681,0.3694,0.3691,0.3734,0.3724,0.3741,0.3781,0.3816,0.3827,0.3837,0.3845,0.3855,0.3735,0.3735,0.3735,0,0.3628,0.3618,0.3622,0.3598,0.3602,0.3603,0.3607,0.3618,0.3628,0.3605,0.3627,0.3636,0.3618,0.3633,0.364,0.3616,0.3676,0.3646,0.3651,0.3656,0.369,0.3703,0.3714,0.3569,0.3569,0.3568,0,0,0.3635,0.3636,0.362,0.3595,0.36,0.3603,0.3607,0.3613,0.3607,0.3611,0.3608,0.3606,0.3609,0.3604,0.3601,0.3601,0.3598,0.3628,0.3636,0.3642,0.3651,0.3686,0.3698,0.3567,0.3567,0.3567,0,0,0.3636,0.363,0.3628,0.3594,0.3593,0.3581,0.3591,0.3598,0.3599,0.3611,0.3591,0.3586,0.3607,0.358,0.3567,0.3603,0.3567,0.3569,0.3624,0.3634,0.3641,0.3655,0.3549,0,0,0,0,0,0.3654,0.3631,0.3629,0.3622,0.3588,0.3578,0.3578,0.3586,0.3603,0.3606,0.3602,0.3592,0.3573,0.356,0.3555,0.3595,0.3552,0.3555,0.3557,0.363,0.364,0.3648,0,0,0,0,0,0,0.3651,0.3639,0.3631,0.3612,0.3606,0.3578,0.3582,0.3584,0.3602,0.3604,0.3593,0.359,0.3571,0.3562,0.3557,0.3596,0.355,0.3553,0.3555,0.3557,0.3633,0.3641,0.3648,0,0,0,0,0,0.3649,0.3639,0.3575,0.3614,0.3609,0.3614,0.3583,0.3584,0.3602,0.3578,0.3577,0.3611,0.3571,0.3567,0.3559,0.36,0.3553,0.3551,0.3555,0.3556,0.3558,0.3637,0,0,0,0,0,0,0.3647,0.3645,0.3575,0.3575,0.3621,0.3617,0.3613,0.3584,0.3574,0.3574,0.3592,0.3593,0.357,0.3567,0.3564,0.3603,0.3556,0.3554,0.3553,0.3556,0.3557,0.3559,0,0,0,0,0,0,0.3651,0.3645,0.3575,0.3583,0.3584,0.362,0.3616,0.3596,0.3573,0.3588,0.359,0.3592,0.357,0.3567,0.3565,0.3535,0.3557,0.3556,0.3555,0.3554,0.3557,0.3558,0,0,0,0,0,0,0.3649,0.3644,0.3582,0.3583,0.3584,0.3587,0.3603,0.3564,0.3592,0.3588,0.3594,0.3595,0.357,0.3568,0.3566,0.3537,0.3536,0.3557,0.3556,0.3555,0.3555,0,0,0,0,0,0,0,0.3648,0.3671,0.3575,0.3584,0.3585,0.3579,0.3579,0.3579,0.3592,0.3593,0.3594,0.3594,0.3566,0.3565,0.3563,0.3538,0,0,0.3557,0.3557,0,0,0,0,0,0,0,0,0.3674,0.3671,0.3575,0.3575,0.3575,0.3579,0.3579,0.3579,0.3593,0.3593,0.3594,0.3594,0.3566,0.3565,0.3563,0,0,0,0,0,0,0,0,0,0,0,0,0,0,0,0.3575,0.3575,0,0.3579,0.3579,0.3579,0.3593,0.3593,0.3594,0.3594,0.3566,0.3564,0.3563,0,0,0,0,0,0,0,0,0,0,0,0,0,0,0,0,0,0,0,0,0,0,0,0,0,0,0,0,0,0,0,0,0,0,0,0,0,0,0,0,0,0,0,0,0,0,0,0,0,0,0,0,0,0,0,0,0,0,0,0,0,0,0,0,0,0,0,0,0]}],[{"header":{"parameterUnit":"kt","parameterCategory":2,"dx":1,"dy":1,"la1":30.253999710083008,"la2":30.299108505249023,"lo1":-89.0895004272461,"lo2":-89.04439544677734,"nx":28,"ny":28,"refTime":"2022-10-25T21:00:00:Z","depth":"2","parameterNumber":3,"parameterNumberName":"V-component_of_CURRENTS"},"data":[0.0865,0.0936,0.0972,0.1121,0.12,0.1327,0.1415,0.1531,0.1597,0.1626,0.1589,0.1569,0.1301,0.099,0.0693,0.0458,0.0388,0.039,0.0423,0.0509,0.0513,0.0309,0.0348,0,0,0,0,0,0.0841,0.0889,0.0974,0.108,0.1179,0.1231,0.1392,0.1462,0.1594,0.1651,0.1682,0.1452,0.1248,0.0976,0.0558,0.0315,0.0292,0.0206,0.0247,0.0249,0.0251,0.0272,0.0228,0.0227,0.0226,0.0225,0,0,0.0799,0.0841,0.0908,0.1001,0.11,0.1221,0.13,0.1405,0.1534,0.161,0.1613,0.1569,0.1358,0.0941,0.0684,0.0381,0.0388,0.0254,0.0256,0.0258,0.0278,0.0278,0.0236,0.0236,0.0235,0.0235,0.0235,0,0.0759,0.0782,0.0834,0.0932,0.1008,0.1111,0.1202,0.1283,0.1365,0.1428,0.1493,0.1478,0.1266,0.1052,0.0726,0.0554,0.0368,0.0317,0.0321,0.0342,0.0343,0.0317,0.0318,0.0311,0.0311,0.0311,0.0311,0.0311,0.0702,0.0743,0.082,0.0868,0.0891,0.0972,0.1044,0.1105,0.1181,0.1255,0.1301,0.1238,0.121,0.0964,0.0723,0.0485,0.0435,0.0327,0.0295,0.0288,0.026,0.0262,0.0264,0.0312,0.0312,0.0312,0.0312,0,0.0675,0.0695,0.076,0.081,0.0838,0.0891,0.0982,0.1052,0.1079,0.117,0.117,0.1127,0.1034,0.0867,0.071,0.0566,0.0427,0.0364,0.0401,0.0376,0.0269,0.0269,0.0249,0.0247,0.0247,0.0246,0.0245,0,0.0633,0.0673,0.0704,0.0734,0.0812,0.0814,0.0902,0.0925,0.0975,0.1054,0.0971,0.1,0.0845,0.077,0.0629,0.0491,0.0516,0.0358,0.0328,0.0359,0.0358,0.035,0.0347,0.0377,0.0378,0.0378,0.0379,0,0.0585,0.0628,0.0679,0.0692,0.0736,0.0759,0.0784,0.082,0.0872,0.0878,0.0901,0.0847,0.0824,0.0719,0.0584,0.0563,0.0484,0.0443,0.034,0.0336,0.0343,0.034,0.0379,0.0379,0.038,0.038,0.038,0,0.0541,0.057,0.0621,0.0671,0.0681,0.07,0.0755,0.0777,0.0795,0.0793,0.0779,0.0736,0.0701,0.0629,0.0544,0.0552,0.0467,0.041,0.0406,0.0373,0.0322,0.0307,0.0326,0.0332,0.0332,0.0333,0.0333,0,0.0508,0.0551,0.0547,0.0593,0.0618,0.0606,0.0632,0.0642,0.0642,0.0657,0.0612,0.0617,0.0545,0.0536,0.0505,0.045,0.0419,0.0433,0.0347,0.0345,0.0328,0.0347,0.0379,0.0327,0.0334,0.0333,0.0333,0,0.0478,0.0495,0.0499,0.0525,0.0522,0.0529,0.0541,0.0558,0.059,0.0539,0.0567,0.0531,0.05,0.0492,0.0449,0.0429,0.0415,0.0382,0.038,0.0361,0.0372,0.0349,0.0346,0.0394,0.0395,0.0395,0.0334,0,0.047,0.0481,0.0483,0.0498,0.0493,0.0497,0.0486,0.0479,0.0459,0.0454,0.0451,0.0407,0.0398,0.038,0.0357,0.0367,0.0338,0.0321,0.0304,0.0327,0.0294,0.0293,0.0284,0.0283,0.0282,0.0282,0,0,0.045,0.0465,0.0441,0.0452,0.0454,0.0422,0.0436,0.0423,0.039,0.0396,0.0363,0.0339,0.031,0.0328,0.0329,0.0306,0.0283,0.0303,0.0312,0.0315,0.0319,0.0289,0.0289,0.028,0.028,0.028,0.0279,0,0.0452,0.044,0.0445,0.0439,0.0424,0.0416,0.0411,0.0382,0.037,0.0358,0.0336,0.032,0.0288,0.0286,0.0281,0.0294,0.026,0.0278,0.0318,0.0305,0.031,0.0314,0.0286,0.0287,0.0278,0.0278,0.0278,0,0.0445,0.0441,0.0435,0.0425,0.041,0.0413,0.0381,0.0363,0.0368,0.0325,0.0312,0.0288,0.0269,0.0263,0.0255,0.0243,0.0237,0.0235,0.0238,0.0254,0.0241,0.0246,0.0251,0.0193,0.0193,0.0193,0,0,0.0448,0.0445,0.0428,0.0424,0.0417,0.039,0.0375,0.0362,0.034,0.0328,0.03,0.0277,0.0269,0.0256,0.024,0.0226,0.0211,0.0227,0.0231,0.0234,0.0252,0.024,0.0245,0.0193,0.0193,0.0193,0,0,0.0445,0.0432,0.0428,0.0422,0.0406,0.0379,0.0366,0.0348,0.0324,0.032,0.0291,0.0284,0.0271,0.0249,0.0249,0.0236,0.0217,0.0217,0.0256,0.0261,0.0265,0.0293,0.023,0,0,0,0,0,0.0438,0.0436,0.0433,0.043,0.0404,0.0386,0.0379,0.0353,0.0338,0.0332,0.031,0.0292,0.0249,0.0249,0.0241,0.0249,0.0189,0.019,0.019,0.0238,0.0243,0.0248,0,0,0,0,0,0,0.0437,0.0435,0.0433,0.041,0.0403,0.0386,0.0371,0.0363,0.0339,0.0335,0.0297,0.0291,0.0276,0.0251,0.0244,0.0252,0.0232,0.019,0.019,0.019,0.024,0.0244,0.0248,0,0,0,0,0,0.0436,0.0434,0.0405,0.0408,0.0403,0.0367,0.0371,0.0364,0.0343,0.0313,0.0306,0.0322,0.0277,0.0269,0.0247,0.0256,0.0236,0.0234,0.019,0.019,0.0191,0.0242,0,0,0,0,0,0,0.0435,0.0425,0.0402,0.0399,0.0407,0.0367,0.0362,0.0366,0.0322,0.0315,0.0339,0.0337,0.0277,0.0271,0.0266,0.0259,0.0239,0.0237,0.0236,0.019,0.019,0.0191,0,0,0,0,0,0,0.0425,0.0422,0.04,0.0401,0.0397,0.0367,0.0363,0.034,0.0322,0.035,0.0347,0.0338,0.0283,0.0273,0.0268,0.0233,0.0242,0.024,0.0238,0.0237,0.019,0.0191,0,0,0,0,0,0,0.0423,0.042,0.0402,0.0399,0.0395,0.035,0.0345,0.0319,0.0325,0.0352,0.0324,0.0324,0.0285,0.028,0.027,0.0237,0.0234,0.0242,0.0241,0.0239,0.0239,0,0,0,0,0,0,0,0.0421,0.0452,0.0424,0.0397,0.0394,0.0362,0.0361,0.036,0.0325,0.0325,0.0324,0.0324,0.0255,0.0252,0.025,0.0241,0,0,0.0242,0.0241,0,0,0,0,0,0,0,0,0.0452,0.0452,0.0424,0.0423,0.0423,0.0362,0.0361,0.036,0.0325,0.0325,0.0324,0.0324,0.0254,0.0252,0.025,0,0,0,0,0,0,0,0,0,0,0,0,0,0,0,0.0424,0.0423,0,0.0362,0.0361,0.036,0.0325,0.0325,0.0324,0.0324,0.0254,0.0252,0.025,0,0,0,0,0,0,0,0,0,0,0,0,0,0,0,0,0,0,0,0,0,0,0,0,0,0,0,0,0,0,0,0,0,0,0,0,0,0,0,0,0,0,0,0,0,0,0,0,0,0,0,0,0,0,0,0,0,0,0,0,0,0,0,0,0,0,0,0,0]}]],[[{"header":{"parameterUnit":"kt","parameterCategory":2,"dx":1,"dy":1,"la1":30.253999710083008,"la2":30.299108505249023,"lo1":-89.0895004272461,"lo2":-89.04439544677734,"nx":28,"ny":28,"refTime":"2022-10-25T21:00:00:Z","depth":"4","parameterNumber":2,"parameterNumberName":"U-component_of_CURRENTS"},"data":[0.1564,0.1619,0.1619,0.1608,0.1626,0.1697,0.1764,0.1867,0.1848,0.2014,0.2036,0.2151,0.2203,0.2348,0.2254,0.2269,0.2264,0.2451,0.2444,0.2553,0.2576,0.2597,0.25,0,0,0,0,0,0.1593,0.16,0.1661,0.1717,0.1803,0.1859,0.1976,0.2046,0.2196,0.2161,0.2266,0.2303,0.2312,0.2374,0.2295,0.2475,0.2544,0.2367,0.2448,0.2567,0.2593,0.2491,0,0,0,0,0,0,0.1634,0.1658,0.1752,0.1823,0.1923,0.195,0.2025,0.2085,0.2168,0.2377,0.2374,0.2509,0.265,0.2591,0.2605,0.2581,0.2534,0.2436,0.2467,0.2493,0.2387,0.2256,0.2099,0,0,0,0,0,0.1665,0.1742,0.18,0.1904,0.1993,0.2068,0.2188,0.2219,0.2392,0.2553,0.2586,0.2617,0.2673,0.271,0.2727,0.272,0.2878,0.2801,0.2814,0.2765,0.2693,0.2676,0.2682,0.2691,0.2694,0.2696,0.2698,0,0.1735,0.1764,0.1913,0.1964,0.2033,0.2156,0.223,0.2399,0.2466,0.267,0.2698,0.2844,0.2917,0.285,0.295,0.2945,0.2912,0.2869,0.2818,0.2734,0.2711,0.2711,0.2709,0.2719,0.2717,0.2715,0.2713,0,0.1779,0.1849,0.1914,0.2046,0.2097,0.217,0.2342,0.2414,0.2573,0.2691,0.2753,0.2909,0.2978,0.3067,0.3153,0.3056,0.3041,0.2984,0.3161,0.3146,0.2752,0.2742,0.2753,0.2745,0.2739,0.2733,0.2729,0,0.1853,0.1896,0.2011,0.2034,0.2122,0.2215,0.2332,0.2427,0.2582,0.2668,0.2807,0.2872,0.3016,0.3085,0.31,0.304,0.3187,0.2941,0.2917,0.3105,0.3094,0.3092,0.3079,0.3205,0.3205,0.3204,0.3204,0,0.1891,0.1969,0.2019,0.2048,0.2152,0.2221,0.23,0.244,0.2522,0.2684,0.276,0.2886,0.2966,0.3026,0.3064,0.3052,0.3152,0.3133,0.2933,0.2916,0.3086,0.3073,0.3204,0.3204,0.3204,0.3204,0.3204,0,0.1937,0.1975,0.2031,0.2115,0.2138,0.2196,0.2328,0.24,0.2543,0.2616,0.2731,0.2798,0.29,0.2885,0.2992,0.2967,0.2982,0.2994,0.2996,0.2773,0.2707,0.2867,0.2972,0.297,0.2968,0.2967,0.2965,0,0.1948,0.1993,0.2032,0.2093,0.2119,0.2197,0.2266,0.2356,0.2445,0.2544,0.2622,0.272,0.2719,0.2776,0.2826,0.2869,0.2905,0.2855,0.2911,0.2912,0.2699,0.2747,0.291,0.2944,0.2946,0.2948,0.295,0,0.1941,0.2002,0.2014,0.2044,0.2121,0.2147,0.2231,0.231,0.238,0.2466,0.2558,0.2642,0.2688,0.2715,0.2736,0.278,0.2866,0.2776,0.2778,0.2779,0.2975,0.2747,0.2738,0.2895,0.2898,0.2901,0.2935,0,0.1958,0.1994,0.2009,0.2052,0.2092,0.2131,0.2183,0.2245,0.2311,0.2359,0.2473,0.2515,0.2593,0.2613,0.2614,0.2712,0.2694,0.2692,0.2659,0.2728,0.2728,0.274,0.2579,0.2578,0.2577,0.2576,0,0,0.1947,0.1966,0.199,0.2016,0.205,0.2096,0.2127,0.217,0.2239,0.2286,0.2304,0.243,0.2458,0.2536,0.2568,0.257,0.259,0.2574,0.2685,0.2697,0.2709,0.2713,0.2726,0.2574,0.2574,0.2574,0.2573,0,0.1927,0.1963,0.1978,0.2004,0.2056,0.2076,0.2098,0.2144,0.2193,0.2259,0.2293,0.236,0.2422,0.2458,0.248,0.255,0.2557,0.2572,0.2615,0.2674,0.2688,0.27,0.2707,0.2719,0.2571,0.2571,0.2571,0,0.1913,0.1933,0.1944,0.1979,0.2008,0.2034,0.2051,0.2103,0.2145,0.216,0.2246,0.2285,0.2317,0.2383,0.2418,0.2397,0.2512,0.2473,0.2478,0.2485,0.2545,0.256,0.2574,0.24,0.2399,0.2399,0,0,0.1903,0.1922,0.1944,0.1975,0.199,0.2027,0.2054,0.2089,0.2128,0.2159,0.2202,0.2251,0.2297,0.2327,0.2365,0.241,0.2417,0.2453,0.2461,0.2467,0.2478,0.2539,0.2554,0.2397,0.2397,0.2397,0,0,0.1893,0.1913,0.1934,0.1964,0.1993,0.2015,0.2053,0.208,0.2137,0.2167,0.2191,0.2205,0.2286,0.2287,0.226,0.2369,0.2334,0.234,0.2371,0.2381,0.2389,0.2395,0.2262,0,0,0,0,0,0.1881,0.1901,0.1919,0.1928,0.1974,0.1997,0.2006,0.206,0.2093,0.212,0.2168,0.2178,0.2284,0.226,0.2267,0.2322,0.2373,0.2377,0.2381,0.2433,0.2444,0.2453,0,0,0,0,0,0,0.1884,0.1891,0.1919,0.1936,0.1948,0.1996,0.2019,0.2034,0.2092,0.2102,0.2167,0.2178,0.2191,0.2257,0.2264,0.2316,0.226,0.2375,0.2378,0.2381,0.2437,0.2446,0.2453,0,0,0,0,0,0.1887,0.1893,0.1955,0.1937,0.1947,0.2015,0.2021,0.2033,0.209,0.212,0.2135,0.2138,0.2188,0.2199,0.2261,0.2313,0.2255,0.2258,0.2377,0.238,0.2382,0.2441,0,0,0,0,0,0,0.1889,0.1901,0.1959,0.1964,0.1955,0.2016,0.2027,0.2033,0.2107,0.2121,0.2088,0.2094,0.2186,0.2195,0.2203,0.2313,0.2252,0.2254,0.2256,0.2379,0.2381,0.2383,0,0,0,0,0,0,0.1898,0.1904,0.1961,0.1981,0.199,0.2017,0.2026,0.2044,0.2107,0.207,0.2078,0.209,0.2184,0.2192,0.2198,0.2222,0.2249,0.2251,0.2253,0.2254,0.2381,0.2383,0,0,0,0,0,0,0.1902,0.1907,0.198,0.1986,0.1994,0.2058,0.2034,0.2084,0.2111,0.2066,0.2117,0.212,0.218,0.2187,0.2195,0.2215,0.222,0.2249,0.2251,0.2252,0.2252,0,0,0,0,0,0,0,0.1905,0.1853,0.1929,0.1991,0.1997,0.2015,0.2017,0.2018,0.2112,0.2114,0.2117,0.2119,0.2236,0.2238,0.2241,0.221,0,0,0.2249,0.225,0,0,0,0,0,0,0,0,0.1853,0.1853,0.1929,0.193,0.1932,0.2016,0.2017,0.2018,0.2112,0.2114,0.2116,0.2118,0.2236,0.2238,0.2241,0,0,0,0,0,0,0,0,0,0,0,0,0,0,0,0.1929,0.193,0,0.2016,0.2017,0.2017,0.2112,0.2114,0.2116,0.2117,0.2237,0.2239,0.224,0,0,0,0,0,0,0,0,0,0,0,0,0,0,0,0,0,0,0,0,0,0,0,0,0,0,0,0,0,0,0,0,0,0,0,0,0,0,0,0,0,0,0,0,0,0,0,0,0,0,0,0,0,0,0,0,0,0,0,0,0,0,0,0,0,0,0,0,0]}],[{"header":{"parameterUnit":"kt","parameterCategory":2,"dx":1,"dy":1,"la1":30.253999710083008,"la2":30.299108505249023,"lo1":-89.0895004272461,"lo2":-89.04439544677734,"nx":28,"ny":28,"refTime":"2022-10-25T21:00:00:Z","depth":"4","parameterNumber":3,"parameterNumberName":"V-component_of_CURRENTS"},"data":[0.0603,0.0654,0.0682,0.0765,0.0816,0.0915,0.0977,0.1015,0.1003,0.1029,0.0927,0.0897,0.0702,0.0845,0.0508,0.0467,0.0388,0.0215,0.021,0.0118,0.0124,0.0128,0.0191,0,0,0,0,0,0.0609,0.0637,0.0695,0.0772,0.0856,0.0912,0.1002,0.1035,0.1085,0.107,0.1074,0.0964,0.0758,0.0678,0.052,0.0492,0.0302,0.0298,0.0221,0.0122,0.0127,0.0187,0,0,0,0,0,0,0.0617,0.0641,0.0703,0.0772,0.0857,0.0929,0.097,0.1008,0.1056,0.1082,0.1071,0.096,0.0905,0.0682,0.0531,0.0379,0.0337,0.027,0.0268,0.0272,0.0339,0.0374,0.0305,0,0,0,0,0,0.0617,0.0652,0.0694,0.0773,0.0837,0.091,0.0979,0.1009,0.1067,0.1088,0.1064,0.096,0.0839,0.0673,0.0504,0.0353,0.0264,0.0198,0.02,0.0219,0.0232,0.0222,0.0232,0.0149,0.015,0.015,0.0151,0,0.0618,0.0647,0.0727,0.0765,0.0795,0.0862,0.0915,0.097,0.1005,0.1034,0.1042,0.0971,0.0913,0.0678,0.0547,0.0331,0.03,0.0213,0.0235,0.0242,0.0229,0.0238,0.0246,0.0155,0.0155,0.0154,0.0154,0,0.0616,0.065,0.0699,0.0756,0.0785,0.0826,0.0903,0.0942,0.0965,0.0999,0.1,0.0952,0.0851,0.0724,0.0572,0.0472,0.0341,0.0284,0.0371,0.0356,0.0251,0.0258,0.0163,0.0161,0.016,0.0158,0.0157,0,0.0615,0.0648,0.0695,0.0718,0.0775,0.0796,0.0854,0.0875,0.0903,0.0937,0.0894,0.0888,0.0781,0.0699,0.0595,0.0458,0.0468,0.0358,0.0334,0.0417,0.0423,0.0401,0.0405,0.0372,0.0372,0.0373,0.0374,0,0.0605,0.0643,0.0682,0.0695,0.0738,0.0765,0.0792,0.0816,0.0848,0.0844,0.0851,0.0803,0.0783,0.0691,0.0591,0.0596,0.0468,0.0464,0.0367,0.0364,0.0407,0.041,0.0375,0.0375,0.0375,0.0376,0.0376,0,0.0596,0.0618,0.0655,0.0703,0.0712,0.0729,0.0773,0.079,0.0796,0.0797,0.0785,0.0764,0.0729,0.0698,0.0603,0.0634,0.0562,0.0512,0.0506,0.0475,0.0459,0.0457,0.0436,0.0438,0.0439,0.0439,0.044,0,0.059,0.0617,0.0627,0.0659,0.0677,0.0687,0.0705,0.0716,0.072,0.0726,0.0701,0.0707,0.0681,0.0684,0.0647,0.0604,0.0558,0.0603,0.0498,0.0495,0.0476,0.0451,0.0565,0.0454,0.0452,0.0451,0.045,0,0.0582,0.0611,0.0616,0.0639,0.0646,0.065,0.0662,0.0675,0.0698,0.0675,0.0689,0.0675,0.0665,0.0663,0.065,0.0619,0.0574,0.0599,0.0597,0.0555,0.0492,0.047,0.0459,0.0569,0.0568,0.0567,0.046,0,0.0596,0.0612,0.0613,0.0629,0.063,0.0634,0.0634,0.0638,0.0644,0.0643,0.0647,0.0626,0.0629,0.0622,0.0619,0.0608,0.059,0.0588,0.0579,0.0578,0.053,0.0523,0.0604,0.0604,0.0603,0.0603,0,0,0.0595,0.0609,0.0607,0.0612,0.0619,0.0614,0.0622,0.0618,0.0611,0.0621,0.0613,0.061,0.0602,0.0609,0.0612,0.0604,0.0577,0.0608,0.0583,0.0581,0.0579,0.0533,0.0526,0.0603,0.0602,0.0602,0.0602,0,0.0599,0.0606,0.0612,0.061,0.061,0.0608,0.061,0.0603,0.0607,0.0606,0.0609,0.0606,0.0599,0.0598,0.0598,0.06,0.0575,0.0601,0.0612,0.0581,0.0579,0.0578,0.0533,0.0527,0.0601,0.0602,0.0602,0,0.0603,0.0607,0.061,0.0607,0.0606,0.0607,0.0603,0.0599,0.0604,0.0596,0.0604,0.0598,0.0594,0.0592,0.0592,0.0588,0.0566,0.0586,0.0587,0.0588,0.0555,0.0554,0.0552,0.0569,0.0569,0.0569,0,0,0.0606,0.0613,0.0608,0.0607,0.0606,0.0603,0.0599,0.06,0.0597,0.0598,0.0595,0.0595,0.0594,0.0593,0.0587,0.0581,0.0556,0.0583,0.0585,0.0586,0.0588,0.0555,0.0554,0.0569,0.0569,0.0569,0,0,0.0604,0.0608,0.0616,0.0614,0.0607,0.0595,0.0593,0.0595,0.0595,0.0603,0.0599,0.0598,0.0599,0.0591,0.0591,0.0588,0.058,0.058,0.0597,0.0599,0.06,0.0606,0.0588,0,0,0,0,0,0.061,0.0607,0.0615,0.0614,0.0608,0.0593,0.0591,0.0592,0.0603,0.06,0.0604,0.0601,0.0592,0.0592,0.0589,0.0595,0.0569,0.0569,0.0569,0.059,0.0592,0.0593,0,0,0,0,0,0,0.061,0.061,0.0614,0.0604,0.0602,0.0593,0.0602,0.0602,0.0604,0.0605,0.0601,0.0601,0.0596,0.0593,0.059,0.0596,0.0588,0.0569,0.0569,0.0569,0.0591,0.0592,0.0593,0,0,0,0,0,0.061,0.0609,0.0604,0.0604,0.0602,0.06,0.0603,0.0603,0.0607,0.0597,0.0597,0.061,0.0596,0.0594,0.0591,0.0598,0.059,0.0589,0.0569,0.0569,0.0569,0.0591,0,0,0,0,0,0,0.0609,0.0607,0.0604,0.0603,0.0611,0.0601,0.0601,0.0604,0.0599,0.0599,0.0604,0.0605,0.0595,0.0594,0.0592,0.0599,0.0591,0.059,0.059,0.0569,0.0569,0.0569,0,0,0,0,0,0,0.0607,0.0606,0.0603,0.0612,0.0612,0.0601,0.0601,0.059,0.0599,0.0607,0.0608,0.0605,0.0599,0.0594,0.0593,0.0574,0.0592,0.0592,0.0591,0.0591,0.0569,0.0569,0,0,0,0,0,0,0.0606,0.0606,0.0612,0.0612,0.0612,0.06,0.059,0.0586,0.0603,0.0607,0.0605,0.0606,0.0598,0.0597,0.0593,0.0574,0.0574,0.0592,0.0592,0.0591,0.0591,0,0,0,0,0,0,0,0.0606,0.0613,0.061,0.0612,0.0612,0.0592,0.0592,0.0592,0.0603,0.0604,0.0605,0.0605,0.0598,0.0597,0.0596,0.0575,0,0,0.0593,0.0592,0,0,0,0,0,0,0,0,0.0613,0.0613,0.0609,0.0609,0.0609,0.0592,0.0592,0.0592,0.0603,0.0604,0.0605,0.0605,0.0597,0.0597,0.0596,0,0,0,0,0,0,0,0,0,0,0,0,0,0,0,0.0609,0.0609,0,0.0592,0.0592,0.0592,0.0603,0.0604,0.0604,0.0605,0.0597,0.0596,0.0596,0,0,0,0,0,0,0,0,0,0,0,0,0,0,0,0,0,0,0,0,0,0,0,0,0,0,0,0,0,0,0,0,0,0,0,0,0,0,0,0,0,0,0,0,0,0,0,0,0,0,0,0,0,0,0,0,0,0,0,0,0,0,0,0,0,0,0,0,0]}]]]